Location: East Fork Observatory
(32.9757°N, 94.4485°W)
Time: 21:24:58
(UTC-05:00)

OTV 5 (USA 277) - Visible Passes

Search period start: 16 October 2019 00:00
Search period end: 26 October 2019 00:00
Orbit: 310 x 324 km, 54.5° (Epoch: 08 October)

Date Brightness Start Highest point End Pass type
(mag) Time Alt. Az. Time Alt. Az. Time Alt. Az.
20 Oct ? 06:08:49 14° N 06:10:30 23° NE 06:12:45 10° E visible
21 Oct ? 06:23:37 24° NW 06:25:06 82° NE 06:27:49 10° SE visible
22 Oct ? 06:38:32 19° W 06:39:33 24° SW 06:41:50 10° S visible
25 Oct ? 20:28:43 10° SW 20:29:09 14° SW 20:29:09 14° SW visible
